This is the latest recevied weather packets stored in our database for station/object N5TDX. If no packets are shown the sender has not sent any weather packets the latest 10 day(s).
| Time | Temp. | Humidity | Pressure | Rain* | Wind** | Luminosity | Snow |
|---|---|---|---|---|---|---|---|
| 1778024433 | 26.11° C | 55% | 1002.2 hPa | 0 mm | - | - | - |
| 1778024131 | 26.11° C | 54% | 1001.8 hPa | 0 mm | - | - | - |
| 1778023828 | 26.67° C | 54% | 1002 hPa | 0 mm | - | - | - |
| 1778023526 | 26.67° C | 54% | 1001.7 hPa | 0 mm | - | - | - |
| 1778023223 | 26.67° C | 54% | 1001.7 hPa | 0 mm | - | - | - |
| 1778022920 | 26.67° C | 55% | 1001.7 hPa | 0 mm | - | - | - |
| 1778022619 | 27.22° C | 54% | 1001.7 hPa | 0 mm | - | - | - |
| 1778022315 | 27.78° C | 54% | 1001.6 hPa | 0 mm | - | - | - |
| 1778022012 | 28.33° C | 54% | 1001.6 hPa | 0 mm | - | - | - |
| 1778021709 | 28.33° C | 54% | 1001.5 hPa | 0 mm | - | - | - |
| 1778021405 | 29.44° C | 52% | 1001.5 hPa | 0 mm | - | - | - |
| 1778021102 | 29.44° C | 48% | 1001.4 hPa | 0 mm | - | - | - |
| 1778020799 | 30° C | 44% | 1001.3 hPa | 0 mm | - | - | - |
| 1778020496 | 30.56° C | 42% | 1001.5 hPa | 0 mm | - | - | - |
| 1778020192 | 30.56° C | 44% | 1001.1 hPa | 0 mm | - | - | - |
| 1778019889 | 30.56° C | 44% | 1001.2 hPa | 0 mm | - | - | - |
| 1778019584 | 30.56° C | 42% | 1001 hPa | 0 mm | - | - | - |
| 1778019282 | 31.11° C | 42% | 1001.2 hPa | 0 mm | - | - | - |
| 1778018979 | 32.22° C | 40% | 1001.1 hPa | 0 mm | - | - | - |
| 1778018676 | 33.33° C | 39% | 1000.7 hPa | 0 mm | - | - | - |
| 1778018374 | 32.78° C | 42% | 1000.8 hPa | 0 mm | - | - | - |
| 1778018072 | 32.78° C | 39% | 1000.8 hPa | 0 mm | - | - | - |
| 1778017769 | 32.78° C | 40% | 1000.9 hPa | 0 mm | - | - | - |
| 1778017467 | 33.33° C | 39% | 1001 hPa | 0 mm | - | - | - |
| 1778017164 | 33.33° C | 40% | 1000.9 hPa | 0 mm | - | - | - |
* Rain latest hour (hover to see other rain measurements)
** Current wind speed in m/s (hover to see current wind gust speed)